[[{"header":{"parameterUnit":"m.s-1","parameterCategory":1,"la1":30.2991,"la2":30.254,"lo1":-89.0895,"lo2":-89.0444,"dy":0.0017,"dx":0.0017,"nx":28,"ny":28,"refTime":"2023-10-06T03:00:00:Z","depth":0,"parameterNumber":2,"parameterNumberName":"U-component_of_WINDS"},"data":[0,0,0,0,0,0,0,0,0,0,0,0,0,0,0,0,0,0,0,0,0,0,0,0,0,0,0,0,0,0,0,0,0,0,0,0,0,0,0,0,0,0,0,0,0,0,0,0,0,0,0,0,0,0,0,0,0,0,1.1931,1.193,0,1.1811,1.181,1.1808,1.1687,1.1685,1.1684,1.1682,1.1556,1.1554,1.1552,0,0,0,0,0,0,0,0,0,0,0,0,0,1.2052,1.205,1.1931,1.193,1.1928,1.1811,1.181,1.1808,1.1687,1.1685,1.1683,1.1681,1.1556,1.1554,1.1552,0,0,0,0,0,0,0,0,0,0,0,0,0,1.1972,1.205,1.1932,1.1854,1.1846,1.1812,1.1809,1.1807,1.1688,1.1685,1.1683,1.1681,1.1557,1.1554,1.1551,1.1583,0,0,1.1543,1.1542,0,0,0,0,0,0,0,0,1.1977,1.1968,1.1867,1.1859,1.185,1.1762,1.1805,1.1732,1.1688,1.1748,1.1682,1.1679,1.1626,1.1617,1.16,1.1577,1.1571,1.1543,1.1541,1.154,1.1539,0,0,0,0,0,0,0,1.1983,1.1972,1.1883,1.1866,1.1855,1.1824,1.181,1.1791,1.1702,1.1742,1.1733,1.1721,1.1621,1.1603,1.1596,1.1569,1.1543,1.154,1.1538,1.1537,1.1564,1.1566,0,0,0,0,0,0,1.2,1.1978,1.1887,1.188,1.1909,1.1824,1.1808,1.1792,1.1702,1.1685,1.1723,1.1716,1.1609,1.1599,1.1591,1.1621,1.154,1.1537,1.1536,1.1562,1.1564,1.1567,0,0,0,0,0,0,1.2004,1.1994,1.1892,1.1926,1.1911,1.1824,1.1808,1.1791,1.1773,1.1687,1.167,1.1722,1.1607,1.1595,1.1585,1.1615,1.1536,1.1533,1.1559,1.1562,1.1566,1.1682,0,0,0,0,0,0,1.2008,1.1995,1.2008,1.1928,1.191,1.1891,1.1809,1.1791,1.1769,1.1758,1.1681,1.1666,1.1604,1.159,1.1583,1.161,1.1531,1.1556,1.156,1.1565,1.1675,1.1689,1.1701,0,0,0,0,0,1.2012,1.2045,1.2009,1.1999,1.1924,1.1893,1.1882,1.1811,1.1772,1.1783,1.1727,1.1668,1.1613,1.159,1.1581,1.1607,1.1554,1.1559,1.1564,1.1669,1.1686,1.1701,0,0,0,0,0,0,1.213,1.2033,1.1992,1.2,1.1956,1.1872,1.1884,1.1831,1.1796,1.1787,1.1699,1.1683,1.1683,1.1644,1.1621,1.1632,1.1575,1.1578,1.1658,1.1673,1.1686,1.1696,1.1529,0,0,0,0,0,1.2157,1.2141,1.2057,1.2072,1.2051,1.1972,1.1956,1.1905,1.1854,1.1835,1.1778,1.1731,1.1702,1.1685,1.1654,1.1668,1.1649,1.1681,1.1694,1.1705,1.171,1.1713,1.1726,1.1585,1.1585,1.1584,0,0,1.2212,1.2157,1.2153,1.2094,1.2053,1.2038,1.1957,1.1944,1.1931,1.1832,1.182,1.1777,1.1718,1.172,1.1718,1.1687,1.1744,1.1712,1.1722,1.172,1.172,1.1733,1.1745,1.1588,1.1588,1.1587,0,0,1.2305,1.2262,1.227,1.2231,1.2171,1.2117,1.2119,1.2044,1.2011,1.1998,1.1923,1.1905,1.1859,1.1819,1.1793,1.187,1.1814,1.1862,1.193,1.1934,1.1945,1.1955,1.1981,1.1992,1.1866,1.1867,1.1867,0,1.2381,1.2356,1.228,1.2272,1.2247,1.2158,1.2164,1.2129,1.2062,1.2047,1.2013,1.1952,1.1905,1.1897,1.1915,1.1897,1.1895,1.1871,1.195,1.1959,1.1966,1.1991,1.2001,1.1873,1.1872,1.1872,1.1871,0,1.2452,1.2436,1.2449,1.2387,1.2364,1.2363,1.2285,1.2271,1.2221,1.2171,1.2157,1.2098,1.2054,1.2047,1.1999,1.2031,1.2014,1.1967,1.1907,1.1987,1.2009,1.2018,1.1882,1.188,1.1878,1.1876,0,0,1.2617,1.2513,1.2519,1.2489,1.2416,1.2401,1.2395,1.2352,1.2341,1.2297,1.2288,1.225,1.2205,1.2176,1.2121,1.2125,1.2188,1.2076,1.2073,1.2099,1.222,1.2257,1.2269,1.2151,1.2152,1.2153,1.2225,0,1.2698,1.2683,1.2614,1.2619,1.2602,1.2516,1.251,1.2464,1.2416,1.2393,1.2339,1.2314,1.2257,1.2238,1.2238,1.2181,1.2211,1.2175,1.2141,1.2141,1.2159,1.228,1.2319,1.2389,1.2233,1.2234,1.2235,0,1.279,1.2753,1.2757,1.2683,1.2673,1.267,1.2624,1.2604,1.2548,1.2513,1.248,1.2419,1.2405,1.235,1.233,1.2306,1.2288,1.2258,1.2258,1.2253,1.2193,1.2278,1.241,1.2421,1.2247,1.2246,1.2246,0,1.291,1.2861,1.2857,1.2834,1.2747,1.2747,1.271,1.2652,1.2631,1.259,1.2575,1.2533,1.251,1.2478,1.2406,1.2373,1.2394,1.2333,1.2363,1.2365,1.2372,1.2373,1.2504,1.236,1.236,1.236,1.236,0,1.3008,1.3013,1.2909,1.2907,1.291,1.2829,1.2834,1.2789,1.2738,1.2724,1.2646,1.2634,1.254,1.2517,1.246,1.2452,1.2442,1.2412,1.2397,1.2419,1.2423,1.2406,1.24,1.2362,1.2362,1.2361,1.2361,0,1.3143,1.3073,1.3063,1.2982,1.2961,1.2967,1.2897,1.289,1.2837,1.282,1.2811,1.2728,1.2696,1.2621,1.257,1.2531,1.2537,1.251,1.2557,1.2547,1.2582,1.258,1.2707,1.2719,1.2569,1.2571,1.2572,0,1.321,1.3212,1.3131,1.3117,1.3084,1.3062,1.3039,1.2959,1.2938,1.2874,1.2875,1.2838,1.2804,1.2757,1.269,1.265,1.2621,1.2668,1.2614,1.2636,1.2621,1.2622,1.2621,1.268,1.2682,1.2684,1.2685,0,1.3336,1.3301,1.3273,1.3232,1.3208,1.3171,1.313,1.3123,1.3031,1.3012,1.2979,1.2953,1.29,1.2863,1.2813,1.2773,1.2714,1.2703,1.2707,1.2731,1.2758,1.2743,1.259,1.27,1.2699,1.2698,1.2697,1.2696,1.3438,1.3437,1.3379,1.335,1.3311,1.3274,1.3264,1.321,1.3181,1.3133,1.3087,1.3059,1.3,1.2926,1.289,1.2866,1.2836,1.2843,1.2845,1.2848,1.2858,1.2762,1.2856,1.2856,1.2855,1.2855,1.2854,0,1.3561,1.3519,1.3493,1.3439,1.3415,1.3362,1.3314,1.3297,1.3274,1.3226,1.3194,1.3156,1.3119,1.305,1.3007,1.3,1.2972,1.2992,1.2991,1.2983,1.2887,1.2887,1.3015,1.3015,1.3015,1.3015,1.3015,1.3015,1.3622,1.3615,1.3574,1.3546,1.3504,1.3477,1.3454,1.3419,1.338,1.3342,1.3312,1.3267,1.3209,1.3161,1.3125,1.3105,1.3092,1.3121,1.3093,1.3005,1.299,1.2975,1.2975,1.3119,1.3119,1.319,1.3191,1.3191]},{"header":{"parameterUnit":"m.s-1","parameterCategory":1,"la1":30.2991,"la2":30.254,"lo1":-89.0895,"lo2":-89.0444,"dy":0.0017,"dx":0.0017,"nx":28,"ny":28,"refTime":"2023-10-06T03:00:00:Z","depth":0,"parameterNumber":3,"parameterNumberName":"V-component_of_WINDS"},"data":[0,0,0,0,0,0,0,0,0,0,0,0,0,0,0,0,0,0,0,0,0,0,0,0,0,0,0,0,0,0,0,0,0,0,0,0,0,0,0,0,0,0,0,0,0,0,0,0,0,0,0,0,0,0,0,0,0,0,-0.2957,-0.2958,0,-0.2994,-0.2994,-0.2995,-0.3057,-0.3058,-0.3059,-0.306,-0.3096,-0.3096,-0.3096,0,0,0,0,0,0,0,0,0,0,0,0,0,-0.2941,-0.2941,-0.2957,-0.2958,-0.2958,-0.2994,-0.2994,-0.2995,-0.3057,-0.3058,-0.306,-0.3061,-0.3097,-0.3096,-0.3096,0,0,0,0,0,0,0,0,0,0,0,0,0,-0.296,-0.2941,-0.2957,-0.2994,-0.2997,-0.2994,-0.2994,-0.2995,-0.3056,-0.3058,-0.306,-0.3062,-0.3097,-0.3096,-0.3096,-0.306,0,0,-0.3096,-0.3096,0,0,0,0,0,0,0,0,-0.2959,-0.2961,-0.2988,-0.2991,-0.2995,-0.3023,-0.3002,-0.3017,-0.3056,-0.3034,-0.306,-0.3062,-0.307,-0.3073,-0.3076,-0.3062,-0.3063,-0.3096,-0.3096,-0.3095,-0.3095,0,0,0,0,0,0,0,-0.2958,-0.2959,-0.2972,-0.2988,-0.2993,-0.3008,-0.3013,-0.3005,-0.3042,-0.3036,-0.3041,-0.3044,-0.3073,-0.3076,-0.3077,-0.3064,-0.3096,-0.3095,-0.3095,-0.3095,-0.3024,-0.3023,0,0,0,0,0,0,-0.2951,-0.2958,-0.2971,-0.2973,-0.2981,-0.3007,-0.3012,-0.3012,-0.3042,-0.3048,-0.3043,-0.3047,-0.3075,-0.3077,-0.3078,-0.3039,-0.3095,-0.3095,-0.3095,-0.3026,-0.3024,-0.3022,0,0,0,0,0,0,-0.295,-0.2952,-0.2969,-0.2967,-0.297,-0.3005,-0.3005,-0.3012,-0.3015,-0.3047,-0.3054,-0.3039,-0.3076,-0.3079,-0.3065,-0.3041,-0.3095,-0.3095,-0.3028,-0.3025,-0.3023,-0.2959,0,0,0,0,0,0,-0.295,-0.2951,-0.2937,-0.2966,-0.297,-0.2955,-0.3003,-0.3011,-0.3014,-0.302,-0.3045,-0.3051,-0.3078,-0.3065,-0.3064,-0.3042,-0.3095,-0.303,-0.3027,-0.3024,-0.2964,-0.2955,-0.2947,0,0,0,0,0,-0.2949,-0.2917,-0.2936,-0.2938,-0.2954,-0.2953,-0.2956,-0.2987,-0.3012,-0.2999,-0.302,-0.305,-0.3044,-0.3063,-0.3063,-0.304,-0.3032,-0.3028,-0.3024,-0.2967,-0.2956,-0.2947,0,0,0,0,0,0,-0.2884,-0.2922,-0.2943,-0.292,-0.2933,-0.2964,-0.2948,-0.2975,-0.2981,-0.2986,-0.3025,-0.303,-0.3011,-0.3024,-0.3045,-0.3007,-0.3043,-0.3039,-0.2999,-0.2989,-0.2981,-0.2978,-0.3095,0,0,0,0,0,-0.2867,-0.2864,-0.2897,-0.2873,-0.2879,-0.2912,-0.2913,-0.2937,-0.2952,-0.2957,-0.2977,-0.299,-0.2992,-0.2991,-0.2994,-0.2966,-0.2973,-0.2951,-0.2942,-0.2935,-0.2931,-0.2919,-0.2909,-0.3009,-0.3009,-0.3009,0,0,-0.2832,-0.2852,-0.2847,-0.2861,-0.2874,-0.2869,-0.2916,-0.2909,-0.2906,-0.2956,-0.2944,-0.296,-0.2977,-0.2956,-0.2948,-0.2966,-0.2905,-0.293,-0.2925,-0.2924,-0.2913,-0.2904,-0.2896,-0.3006,-0.3007,-0.3007,0,0,-0.2766,-0.2781,-0.2763,-0.2776,-0.2795,-0.2818,-0.2813,-0.2841,-0.2853,-0.2842,-0.288,-0.2877,-0.2878,-0.2889,-0.2895,-0.2835,-0.2863,-0.2835,-0.2791,-0.2779,-0.2771,-0.2764,-0.2743,-0.2735,-0.2831,-0.283,-0.283,0,-0.272,-0.2715,-0.2751,-0.2742,-0.2747,-0.2793,-0.2776,-0.2786,-0.2805,-0.2807,-0.2828,-0.2831,-0.2846,-0.2829,-0.2814,-0.2817,-0.2814,-0.2832,-0.2769,-0.2763,-0.2757,-0.2737,-0.2729,-0.2827,-0.2827,-0.2828,-0.2828,0,-0.2657,-0.2653,-0.2637,-0.2655,-0.2658,-0.2645,-0.2679,-0.2678,-0.2702,-0.2723,-0.2712,-0.2732,-0.274,-0.2738,-0.2761,-0.2724,-0.2735,-0.2762,-0.2798,-0.2743,-0.2726,-0.2718,-0.2822,-0.2823,-0.2824,-0.2825,0,0,-0.2549,-0.2589,-0.2582,-0.2592,-0.2618,-0.2615,-0.2605,-0.2614,-0.2612,-0.2624,-0.2617,-0.2617,-0.2643,-0.2649,-0.2674,-0.2663,-0.2615,-0.2691,-0.2692,-0.2676,-0.2577,-0.2557,-0.2547,-0.2634,-0.2633,-0.2632,-0.2576,0,-0.2488,-0.2473,-0.2506,-0.2482,-0.248,-0.2524,-0.2515,-0.253,-0.255,-0.255,-0.2572,-0.2572,-0.2605,-0.261,-0.2601,-0.2622,-0.2595,-0.2627,-0.2628,-0.2627,-0.2621,-0.2538,-0.2516,-0.2462,-0.2569,-0.2568,-0.2567,0,-0.2415,-0.2424,-0.24,-0.2429,-0.2429,-0.242,-0.2432,-0.2432,-0.245,-0.2465,-0.2474,-0.2503,-0.2496,-0.2531,-0.2521,-0.2542,-0.2544,-0.2555,-0.2554,-0.2555,-0.2593,-0.2537,-0.2446,-0.2438,-0.2557,-0.2557,-0.2558,0,-0.2339,-0.2346,-0.2333,-0.2339,-0.2372,-0.2365,-0.2379,-0.2399,-0.2403,-0.2413,-0.2416,-0.2424,-0.2429,-0.2435,-0.2467,-0.2489,-0.2453,-0.2491,-0.2466,-0.2465,-0.2455,-0.2455,-0.2363,-0.2457,-0.2457,-0.2457,-0.2458,0,-0.2267,-0.2251,-0.2299,-0.2291,-0.2275,-0.2313,-0.2296,-0.2314,-0.2332,-0.2329,-0.2368,-0.2364,-0.2406,-0.2406,-0.2431,-0.2419,-0.2421,-0.2433,-0.244,-0.243,-0.2428,-0.2431,-0.2436,-0.2455,-0.2456,-0.2456,-0.2457,0,-0.2179,-0.2211,-0.22,-0.2232,-0.224,-0.2227,-0.2255,-0.2249,-0.2272,-0.2267,-0.2268,-0.2304,-0.2307,-0.2339,-0.2349,-0.2366,-0.2345,-0.2359,-0.2338,-0.2343,-0.2316,-0.2318,-0.2222,-0.2212,-0.2312,-0.2311,-0.231,0,-0.213,-0.2119,-0.2151,-0.2152,-0.2164,-0.2165,-0.2169,-0.2207,-0.221,-0.2232,-0.2223,-0.223,-0.2237,-0.224,-0.2266,-0.2274,-0.2289,-0.2255,-0.229,-0.228,-0.2288,-0.2289,-0.2288,-0.2247,-0.2246,-0.2245,-0.2244,0,-0.2042,-0.2059,-0.2064,-0.2074,-0.2079,-0.2089,-0.2102,-0.21,-0.2142,-0.2144,-0.2148,-0.2154,-0.2165,-0.2171,-0.2184,-0.2198,-0.2228,-0.2233,-0.2227,-0.2216,-0.2205,-0.2211,-0.2318,-0.2234,-0.2235,-0.2236,-0.2237,-0.2237,-0.1972,-0.1965,-0.1987,-0.1992,-0.2006,-0.2017,-0.2013,-0.2037,-0.2041,-0.2053,-0.2076,-0.2076,-0.2097,-0.2118,-0.2129,-0.2131,-0.2148,-0.214,-0.2138,-0.2136,-0.2131,-0.2205,-0.2133,-0.2134,-0.2134,-0.2134,-0.2134,0,-0.1886,-0.1903,-0.1907,-0.1924,-0.1928,-0.1957,-0.1973,-0.1974,-0.1975,-0.1991,-0.1998,-0.2003,-0.201,-0.2038,-0.2048,-0.2043,-0.2057,-0.2045,-0.2045,-0.2048,-0.2114,-0.2118,-0.2033,-0.2033,-0.2033,-0.2033,-0.2033,-0.2033,-0.1841,-0.1831,-0.185,-0.1847,-0.1865,-0.1866,-0.1873,-0.1884,-0.1898,-0.1902,-0.1908,-0.1927,-0.1948,-0.196,-0.1968,-0.1976,-0.1978,-0.196,-0.1973,-0.2034,-0.2043,-0.2053,-0.2056,-0.196,-0.196,-0.1907,-0.1906,-0.1906]}]]